Flag for Uruguay Weather past 2 weeks in Minas, Uruguay

Now
46 °F

Clear.


Feels Like: 44 °F
Forecast: 39 / 58 °F
Wind: 5 mph from East

Location: Capitan Corbeta

Current Time: Sep 3, 2015 at 2:04:17 AM

Latest Report: Sep 3, 2015 at 1:00 AM


Visibility: 10 mi

Pressure: 30.21 "Hg

Humidity: 82%

Dew point: 41 °F

Location of MinasLocation

Historic Weather in Minas — Graph

°F

Minas temperature yesterday

Maximum temperature yesterday: 55 °F (at 4:00 PM)
Minimum temperature yesterday: 37 °F (at 1:00 AM)
Average temperature yesterday: 47 °F

Past Weeks' High & Low Weather Summary

 TemperatureHumidityPressure
High79 °F (Aug 29, 1:00 PM)100% (Aug 19, 7:00 AM)30.48 "Hg (Aug 19, 7:00 AM)
Low37 °F (Sep 2, 1:00 AM)26% (Aug 30, 1:00 PM)29.65 "Hg (Aug 22, 3:00 PM)
Average56 °F74%30.04 "Hg
* Reported Midnight between Aug 18 and Aug 19 — Midnight between Sep 2 and Sep 3, Minas, Weather by CustomWeather, © 2015

Note: Actual official high and low records may vary slightly from our data, if they occured in-between our weather recording intervals... More about our weather records

Advertising

Minas weather history for previous 24 hours

 ConditionsComfort  
Time TempWeatherWind HumidityBarometerVisibility
12:00 AM
Thu, Sep 3
48 °FClear.6 mph82%30.21 "Hg10 mi
11:00 PM
Wed, Sep 2
48 °FClear.5 mph82%30.21 "Hg10 mi
10:00 PM50 °FClear.8 mph76%30.21 "Hg10 mi
9:00 PM52 °FClear.6 mph77%30.21 "Hg10 mi
8:00 PM52 °FClear.9 mph77%30.18 "Hg10 mi
6:00 PM52 °FClear.8 mph72%30.18 "Hg10 mi
5:00 PM54 °FSunny.7 mph72%30.21 "Hg10 mi
4:00 PM55 °FBroken clouds.5 mph63%30.21 "HgN/A
3:00 PM54 °FPartly sunny.5 mph67%30.21 "HgN/A
2:00 PM54 °FPartly sunny.5 mph72%30.24 "HgN/A
1:00 PM54 °FSunny.6 mph72%30.27 "Hg10 mi
12:00 PM52 °FOvercast.5 mph77%30.30 "HgN/A
11:00 AM50 °FSunny.9 mph76%30.30 "Hg10 mi
10:00 AM48 °FSunny.8 mph82%30.30 "Hg10 mi
9:00 AM46 °FClear.7 mph93%30.33 "Hg5 mi
8:00 AM43 °FPartly sunny.8 mph93%30.33 "Hg5 mi
7:00 AM43 °FFog.6 mph93%30.33 "Hg5 mi
6:00 AM41 °FFog.N/A93%30.30 "Hg5 mi
5:00 AM41 °FFog.N/A93%30.33 "Hg5 mi
4:00 AM41 °FFog.7 mph93%30.30 "Hg5 mi
3:00 AM39 °FFog.7 mph87%30.33 "Hg5 mi
2:00 AM37 °FFog.N/A87%30.36 "Hg5 mi
Weather by CustomWeather, © 2015

See weather overviewHow to use our weather pages